Torna al catalogo

OCO 2

AttivoScienzaSSO
NORAD 40059·PAYLOAD·🇺🇸 United States

Lanciato Jul 2, 2014 da Vandenberg Space Force Base

Loading…

Prossimi Passaggi (prossime 24 ore)

TLE

AggiornatoSource: Space-Track

Epoca: Sep 14, 2026, 13:30 UTC

1 40059U 14035A   26257.56266008  .00000285  00000-0  73305-4 0  9993
2 40059  98.2066 197.5120 0001650  78.8763 281.2621 14.57089533649069

Traccia OCO 2 in tempo reale con AllMySat

Download on the App Store